RH
19 20 21 22 23 25 24 23 22 21 20 19 19 18 17 17 18 16 16 15 13 24 31 27 25 25 27 27 29 33 36 33 31 34 36 40 43 44 44 41 40 39 37 37 36 34 31 32 31 31 31 28 25 18 15 16 19 23 26 27 30 33 36 37 36 36 35 34 35 37 40 42 45 47 50 51 50 50 52 49 46 44 40 36 35 35 35 36 38 41 42 43 42 42 42 41 38
18 18 19 19 20 21 23 24 24 23 21 20 20 19 17 18 18 16 16 15 16 27 31 29 27 27 30 31 32 34 37 38 36 38 41 44 44 45 44 42 41 38 36 36 36 33 32 32 32 33 32 29 25 18 15 16 18 22 25 27 30 34 37 40 40 41 41 40 41 42 44 47 48 48 49 52 52 51 53 52 49 45 42 38 36 36 36 36 37 38 40 39 40 41 41 40 37
18 18 18 18 19 19 21 23 23 24 22 21 19 19 18 18 18 17 16 17 22 28 27 29 29 29 32 32 34 35 38 42 41 43 45 45 46 47 45 42 40 37 35 35 35 33 32 33 34 35 32 29 24 18 16 16 18 21 23 26 30 33 38 42 43 43 44 45 45 46 48 49 49 49 49 52 54 53 53 53 51 48 45 42 39 38 37 37 38 38 38 37 36 37 37 36 34
19 19 19 19 19 20 21 21 22 23 21 21 19 18 18 18 17 16 19 21 26 27 27 31 31 34 34 34 39 38 40 42 42 43 44 45 45 46 45 42 39 36 35 36 36 35 34 34 36 37 33 29 25 19 16 15 16 19 22 26 29 32 36 41 43 43 44 46 46 47 50 50 50 50 49 51 55 55 54 53 53 51 47 45 42 40 39 39 39 39 39 36 34 34 34 33 32
19 19 19 19 19 20 21 21 22 21 19 20 18 17 17 17 16 16 23 24 24 26 29 33 33 37 38 42 44 38 40 43 43 42 41 44 42 42 43 39 37 36 36 37 37 36 37 37 39 38 33 30 26 21 18 16 15 17 20 24 28 31 35 38 41 43 44 46 47 48 51 51 51 51 50 50 55 56 55 53 53 53 49 46 45 42 40 39 40 40 40 36 33 34 34 32 33
19 19 18 18 18 19 19 19 20 19 18 18 17 16 17 17 16 16 20 22 26 31 34 35 36 39 41 47 45 40 43 42 42 41 40 43 39 39 40 38 36 35 36 37 37 37 39 41 40 38 33 30 27 23 20 17 15 15 20 24 27 31 34 37 40 44 46 47 48 50 52 52 52 52 51 51 54 57 55 53 52 52 50 48 46 45 43 41 40 40 40 37 34 34 33 32 35
19 18 18 17 17 18 18 17 17 17 17 17 16 16 16 16 15 15 15 18 27 35 38 40 40 39 42 45 43 43 44 42 42 39 39 42 39 39 38 37 37 36 36 37 38 40 42 41 40 37 34 31 28 25 23 19 15 15 19 23 27 31 34 37 41 45 48 49 49 51 53 53 52 53 53 52 53 56 56 54 53 53 52 49 47 46 43 41 39 38 39 36 33 34 33 34 36
16 16 16 16 17 17 17 16 15 15 16 16 16 15 16 16 15 15 15 15 24 35 40 43 42 40 43 43 42 45 43 41 39 35 38 41 40 39 37 36 37 37 36 37 39 42 44 41 40 37 34 32 30 28 26 21 16 16 19 23 27 30 33 36 40 45 50 50 50 53 54 53 53 53 54 54 52 54 55 54 54 53 53 50 46 43 40 38 37 37 37 34 34 35 35 35 36
13 13 14 14 15 15 15 15 14 14 14 15 14 14 15 15 15 15 14 15 23 35 41 43 41 39 41 41 42 45 42 39 36 33 36 40 41 39 38 37 36 36 35 36 39 42 42 41 40 38 35 33 31 30 28 23 18 16 18 22 25 28 32 35 39 45 50 50 51 54 55 54 54 54 54 54 52 51 53 52 52 51 52 50 45 40 36 35 37 38 36 34 36 36 36 36 37
10 10 12 12 11 12 12 11 11 12 12 12 11 11 12 13 13 12 12 13 20 31 39 41 40 39 40 41 43 44 41 39 36 35 37 39 41 40 39 37 35 34 34 35 38 41 41 41 41 38 36 34 33 32 30 25 20 18 19 21 24 27 30 34 39 46 49 48 51 54 56 55 55 56 54 54 53 50 50 49 49 48 48 47 43 38 35 35 36 38 38 38 38 37 37 38 38
9 9 9 9 9 8 8 8 8 8 9 9 9 9 9 10 9 9 9 9 17 27 36 37 38 40 40 42 45 43 41 39 36 37 40 40 40 40 39 37 35 34 33 35 38 41 42 41 39 37 36 35 35 34 31 28 23 20 19 21 23 25 29 34 41 47 48 47 50 54 57 56 56 57 55 54 53 51 48 47 46 45 44 43 41 38 36 35 35 37 40 43 42 39 38 40 40
9 9 8 8 8 7 7 7 7 7 7 7 7 8 8 9 8 7 6 7 16 25 31 33 35 38 38 42 45 43 41 39 38 39 42 42 40 40 39 38 37 34 34 37 38 40 41 40 38 37 36 36 36 34 33 30 25 22 20 22 23 25 28 35 44 48 47 46 48 53 57 57 57 56 55 52 52 51 48 46 44 43 43 42 40 38 37 36 35 36 41 46 45 42 40 40 41
9 11 8 8 8 8 8 7 7 8 7 7 8 9 10 11 9 8 6 7 16 22 26 30 33 36 38 43 45 43 41 40 41 41 42 42 40 41 41 40 38 35 37 39 39 39 39 39 38 38 37 36 36 35 34 32 26 23 22 22 23 25 29 38 46 46 46 46 48 52 55 55 54 53 53 51 51 51 49 46 44 44 44 42 40 38 37 37 36 36 41 46 47 46 44 43 43
10 11 9 9 10 9 8 7 8 8 7 8 9 10 11 12 12 10 7 9 16 21 25 30 32 35 40 43 44 44 40 40 42 42 41 40 41 42 42 42 40 39 42 41 39 40 40 39 39 38 37 37 37 36 35 32 27 25 24 22 24 26 32 42 45 43 44 44 45 48 51 51 48 49 52 52 51 50 49 47 44 43 43 41 40 38 37 37 36 36 39 45 47 48 48 47 46
11 11 10 10 10 9 9 8 8 7 8 10 10 10 11 17 20 15 9 10 19 24 27 31 33 34 38 40 42 43 41 41 42 41 41 40 43 43 43 44 43 44 44 43 42 41 40 40 40 38 38 38 38 37 36 33 29 27 24 23 25 29 37 43 40 39 40 39 42 46 48 48 46 48 51 51 51 51 50 48 45 42 42 42 40 38 37 36 35 35 38 43 47 49 50 50 50
13 12 12 11 10 10 9 9 9 8 10 10 10 10 10 19 25 18 10 13 24 29 28 32 33 31 35 39 40 42 42 41 41 41 42 42 45 44 45 46 46 47 46 47 46 43 41 41 40 39 39 39 39 39 39 36 32 29 25 26 28 31 38 40 35 34 35 35 39 43 46 47 46 47 50 51 50 50 51 49 46 43 42 42 40 38 37 36 35 34 37 42 46 48 50 51 52
13 13 13 12 11 11 10 9 9 9 11 10 11 11 9 18 28 22 16 19 28 31 31 33 33 32 37 39 37 40 41 41 41 42 44 45 44 44 46 48 49 50 49 51 49 45 44 43 42 41 41 41 42 43 41 38 35 31 29 29 31 32 33 32 30 32 36 37 36 38 41 42 42 44 47 49 49 50 51 50 47 43 41 42 40 38 36 36 35 34 35 41 45 46 48 51 52
12 13 13 13 12 11 10 10 9 10 12 11 11 11 10 20 28 26 24 26 30 33 34 35 34 34 39 38 36 40 42 42 42 43 46 45 45 46 48 50 52 53 52 53 54 51 48 45 44 42 43 44 45 43 41 39 36 33 32 32 32 32 29 28 30 34 39 38 35 35 37 37 39 42 45 47 48 49 49 47 45 43 42 41 41 39 36 34 33 33 35 40 44 45 47 50 52
12 13 12 13 13 11 11 10 10 12 13 12 12 12 12 21 27 27 27 29 30 32 34 35 36 38 40 40 38 41 43 43 43 44 45 46 48 50 51 52 53 54 54 56 58 55 50 47 45 43 44 44 43 42 41 39 37 35 35 34 32 31 28 29 32 35 37 37 35 34 35 37 40 43 44 44 45 45 45 44 44 45 44 42 41 40 35 31 29 31 33 38 43 45 47 50 52
12 12 12 13 13 12 12 11 11 13 14 13 14 13 15 25 28 27 28 30 29 30 33 34 36 39 39 41 40 42 45 45 44 44 45 47 51 53 54 55 54 54 56 58 59 55 51 47 44 42 43 42 42 41 40 39 38 38 36 34 33 32 32 33 35 36 37 37 36 36 38 41 43 46 45 44 44 44 44 45 46 47 47 45 42 39 35 30 27 28 31 36 42 45 48 52 53
13 12 12 13 13 13 12 13 13 14 15 14 14 14 21 31 30 28 30 30 29 29 33 33 33 36 37 41 42 44 46 46 46 46 46 50 52 54 56 55 54 55 55 57 57 54 50 46 43 42 43 43 43 41 40 40 40 39 36 35 35 36 37 38 38 38 39 39 41 43 46 48 51 53 53 54 55 53 53 52 52 50 48 46 42 39 36 33 29 27 29 35 42 47 50 54 56
12 13 13 13 13 13 12 13 14 15 15 15 15 14 23 34 31 32 32 29 28 28 32 34 34 34 35 39 43 46 48 47 47 46 48 52 55 55 55 55 56 57 55 54 53 51 48 45 44 44 44 43 42 41 41 41 41 41 40 39 40 41 41 41 41 42 43 45 48 50 52 55 56 57 61 64 64 63 63 64 63 59 52 47 44 41 39 37 35 31 29 32 41 47 51 55 56
12 13 14 14 13 13 12 13 14 15 16 16 15 15 23 33 34 35 35 33 32 30 32 35 38 40 42 45 47 49 50 49 49 49 51 55 58 57 56 56 56 55 53 49 46 46 46 45 45 44 43 42 42 43 44 45 46 46 45 45 45 45 44 44 46 48 49 50 50 51 52 55 57 59 62 66 66 66 67 68 68 65 59 53 48 46 45 43 41 38 33 30 37 44 48 52 55
12 12 14 14 13 12 12 13 14 16 18 16 16 18 22 30 34 36 36 37 38 35 34 38 43 47 49 52 54 54 53 50 50 51 54 58 59 59 58 57 54 51 48 44 42 43 44 44 44 43 43 43 45 46 47 49 50 49 50 49 48 48 47 46 48 51 51 51 50 50 50 52 57 60 61 63 65 67 68 69 67 65 63 60 56 52 50 50 49 48 42 35 35 41 44 46 48
13 12 14 14 12 12 12 13 14 16 17 16 21 26 27 32 35 37 38 39 41 41 40 44 48 51 52 57 59 56 53 51 50 53 56 58 58 60 61 58 54 51 46 42 41 41 41 42 45 46 46 47 47 48 48 50 51 51 51 51 51 51 49 49 50 50 50 49 48 47 48 50 54 57 58 59 63 67 69 68 66 63 62 61 60 57 52 53 55 56 55 48 42 43 46 45 43
12 12 13 13 11 11 12 14 14 16 17 19 30 36 36 39 38 38 41 41 42 44 46 49 52 54 57 61 60 56 54 52 51 54 58 57 58 63 64 60 55 52 46 42 40 39 39 43 48 50 50 49 49 49 50 50 50 50 51 52 53 52 51 51 50 49 48 47 46 46 48 50 51 52 54 55 59 64 65 63 63 62 61 59 59 58 54 53 55 57 61 60 54 51 53 53 52
12 13 13 13 11 11 12 13 14 16 17 21 34 37 36 39 37 39 44 44 44 48 51 54 56 59 63 64 60 56 55 54 53 55 58 57 59 63 62 57 53 50 46 42 39 38 40 45 50 52 51 51 51 50 50 49 49 50 51 51 51 51 49 48 47 46 45 45 45 46 48 49 49 49 51 51 53 58 59 58 58 57 58 58 57 56 55 55 55 56 59 61 61 60 58 57 57
12 13 12 11 11 10 12 13 14 17 17 23 33 34 32 36 37 42 46 47 50 54 57 60 62 63 67 66 62 60 59 57 55 55 59 60 61 62 59 54 51 50 47 43 40 40 44 47 50 53 53 54 53 52 51 49 49 49 48 48 47 46 45 45 45 45 45 46 47 47 47 46 47 48 48 48 49 52 54 54 54 54 54 56 55 54 53 54 55 57 59 60 59 59 58 56 56
11 13 12 11 10 10 11 12 15 16 19 28 33 31 31 36 41 46 49 50 53 59 61 60 60 60 66 69 66 68 70 66 62 61 63 62 61 61 58 55 55 55 51 45 43 44 48 52 54 58 59 59 59 57 54 50 48 46 45 44 43 43 43 43 44 45 46 45 45 46 46 46 46 48 47 47 46 46 47 48 51 52 51 52 54 54 53 53 54 56 60 63 62 59 56 54 52
11 13 13 12 10 11 11 12 15 17 23 31 32 30 31 36 45 50 52 53 55 59 58 54 53 53 63 73 72 75 77 76 74 70 66 63 62 61 60 60 61 61 55 47 45 47 53 59 62 64 64 63 63 61 57 52 47 44 43 42 41 40 41 43 44 44 42 42 43 45 44 44 45 46 47 46 44 43 43 44 47 48 48 50 53 54 54 54 53 54 57 62 63 61 58 54 50
11 13 14 13 12 11 11 14 16 18 26 32 28 29 31 35 47 53 55 57 55 55 55 53 53 52 60 73 74 74 77 79 78 70 65 66 66 63 63 66 67 66 60 54 50 50 57 63 64 64 64 62 61 60 57 53 48 44 41 40 39 39 40 42 42 43 42 41 43 43 41 40 40 42 44 43 41 41 42 43 45 46 48 51 53 54 55 54 52 52 53 55 56 55 55 53 50
12 15 16 14 13 12 13 16 17 19 28 30 25 27 32 37 44 50 55 57 54 55 56 56 59 57 62 73 73 73 77 78 74 67 63 66 68 67 67 67 69 68 65 62 58 57 61 64 64 62 62 61 59 58 57 54 49 43 39 38 38 38 41 43 43 47 47 41 39 39 38 39 40 41 42 42 41 40 41 42 45 47 49 51 52 53 53 53 52 52 53 52 51 49 48 49 49
14 15 16 14 12 13 14 16 17 20 27 30 27 28 35 42 45 46 54 58 57 60 62 60 62 65 70 79 78 74 74 72 68 65 64 66 68 70 70 68 68 69 66 64 61 60 64 65 65 63 62 60 58 57 55 52 47 42 38 37 39 39 42 47 47 45 42 37 36 36 37 38 40 42 44 44 42 40 40 41 44 46 47 49 51 51 51 51 52 54 54 51 48 47 47 48 50
16 15 16 15 13 13 15 16 17 21 27 31 32 34 40 46 47 46 51 59 61 64 71 71 67 69 73 79 81 74 69 67 65 64 64 66 66 67 70 69 68 68 67 65 62 60 62 65 64 64 61 58 56 55 51 48 45 43 41 40 42 41 43 48 46 40 38 37 36 36 36 37 38 40 42 43 42 40 40 41 42 43 44 46 48 48 48 49 50 51 49 47 47 47 48 50 51
17 16 16 15 13 14 15 17 20 25 29 31 34 39 44 45 45 46 51 56 56 57 69 77 73 69 71 76 79 75 70 68 67 67 67 66 66 67 69 70 69 69 69 66 63 60 59 59 60 60 58 56 54 51 48 47 46 45 45 43 44 44 44 46 44 41 40 38 37 36 36 35 36 37 39 40 40 39 39 40 40 41 42 43 42 42 43 44 46 47 47 48 48 48 48 49 49
15 15 15 14 13 14 15 18 24 29 33 35 37 40 45 44 42 47 52 53 54 55 62 71 71 65 67 72 74 75 72 69 69 69 67 67 70 71 72 72 71 69 70 68 66 62 57 55 56 56 56 55 52 50 48 48 48 47 46 45 45 46 46 46 44 42 41 39 37 36 35 35 35 35 36 37 37 37 38 39 40 41 42 41 41 41 42 44 46 48 48 48 48 48 47 47 47
15 15 14 14 13 15 17 22 30 34 36 40 41 41 46 44 42 47 52 53 56 59 61 67 70 66 66 68 65 66 69 70 69 68 67 68 70 72 72 72 71 70 70 69 67 63 58 56 57 57 56 55 53 52 52 51 50 49 47 48 48 47 45 44 44 42 40 39 37 36 36 35 35 35 35 35 36 37 38 40 42 43 43 43 43 44 46 48 49 48 46 46 45 45 44 43 42
16 15 15 14 13 15 22 28 33 33 35 43 43 43 47 46 46 50 50 52 55 58 60 65 70 69 71 73 67 67 74 75 72 70 70 70 69 68 68 69 69 69 69 67 66 62 60 61 62 61 60 59 57 55 55 52 50 49 49 50 49 46 44 43 42 41 39 38 37 37 37 36 36 36 36 36 37 38 39 41 42 43 43 44 44 44 46 47 46 43 41 40 40 40 40 39 37
16 16 15 15 14 14 21 30 33 32 37 46 46 47 53 51 51 53 47 50 55 57 59 60 63 65 73 80 76 77 84 83 78 74 72 70 69 67 65 66 66 65 66 65 64 63 64 67 67 65 64 62 57 55 54 52 50 49 49 49 47 45 44 43 41 40 39 39 38 37 37 37 37 37 37 38 39 39 40 41 41 41 42 42 42 42 43 42 40 38 37 37 37 37 38 36 36
16 16 15 15 15 13 19 30 35 33 36 44 45 53 63 59 57 56 50 53 56 57 56 57 61 63 75 85 80 82 87 87 85 79 73 70 68 66 63 63 65 64 64 64 64 66 67 68 69 67 65 61 57 54 52 51 49 49 48 47 45 44 43 42 41 40 39 39 38 37 37 37 38 38 39 40 40 41 41 41 41 40 41 40 41 41 41 40 39 38 37 36 37 37 36 35 36
17 16 15 14 16 18 24 32 35 34 39 41 41 55 68 65 62 60 57 57 58 59 56 57 64 67 78 87 81 83 85 84 86 80 73 70 67 65 62 60 63 64 63 64 66 67 66 67 68 68 65 60 56 54 52 50 48 46 46 46 46 44 43 41 40 39 39 39 38 38 38 38 39 40 40 41 41 41 41 40 40 41 42 42 41 42 42 41 40 39 37 36 36 35 35 34 34
17 16 15 14 20 27 32 34 32 34 45 47 39 52 68 67 66 62 58 59 59 61 58 58 66 70 78 86 83 82 80 78 82 79 72 68 66 67 66 62 62 64 64 64 66 66 65 67 67 68 67 60 55 53 51 50 48 45 43 43 44 43 42 41 40 40 40 40 39 40 40 39 39 40 41 41 41 40 40 41 41 42 43 43 42 42 42 42 40 38 36 35 35 34 34 33 34
19 16 15 18 25 31 33 31 27 29 42 48 37 46 65 68 66 60 57 61 60 58 59 60 67 70 73 80 82 79 73 72 77 76 71 68 67 69 70 67 65 66 68 68 68 66 66 68 68 69 69 61 54 52 50 49 47 45 42 40 40 42 42 42 42 42 41 41 40 40 40 39 39 40 40 40 40 40 40 41 42 43 44 43 43 42 42 40 38 35 34 33 33 33 33 34 34
20 18 18 23 26 30 31 27 27 30 38 48 41 41 58 65 64 61 58 63 63 58 58 60 63 64 64 72 80 76 69 71 76 74 70 69 69 69 71 71 68 68 70 71 71 69 68 68 67 67 65 57 50 48 47 46 45 44 43 41 40 41 42 42 43 43 43 42 41 41 40 40 40 39 40 40 39 39 40 41 43 44 44 43 43 43 40 38 35 33 32 31 32 34 34 34 35
20 19 19 23 23 27 29 24 28 34 35 47 51 41 49 62 64 64 63 64 65 62 58 56 59 63 64 68 77 76 70 73 77 73 70 70 71 71 72 74 72 71 70 70 71 70 67 65 61 60 57 49 45 45 45 45 45 44 44 43 40 41 42 42 42 43 43 42 42 41 40 39 39 38 39 39 39 39 41 42 43 43 43 41 40 40 37 35 32 30 29 30 31 34 36 36 36
20 20 19 21 22 26 27 24 27 31 28 40 50 42 45 61 65 65 68 64 61 62 59 58 60 64 68 71 75 77 72 74 77 73 71 73 74 74 73 73 73 73 71 69 70 68 63 58 53 52 51 46 45 46 45 47 49 47 45 43 41 40 41 42 42 42 42 42 41 40 38 37 36 35 36 36 37 38 39 40 41 40 39 36 34 33 31 30 27 25 26 27 29 31 33 35 36
19 20 19 19 22 23 24 25 25 26 25 30 41 41 41 55 62 61 59 53 51 54 58 60 61 64 71 72 72 73 69 70 76 74 73 75 76 75 75 74 75 74 71 69 67 65 60 53 49 47 46 46 46 47 47 48 49 46 43 42 41 40 40 40 40 39 39 39 38 37 37 36 34 33 33 33 33 34 35 35 35 35 33 31 28 27 26 25 24 24 24 25 26 27 28 29 31
18 19 20 20 23 23 24 27 24 23 26 26 35 41 36 43 54 51 44 42 43 48 52 56 60 66 71 68 68 69 66 67 72 72 74 76 76 77 76 75 74 73 70 68 65 63 59 54 50 47 47 47 48 48 48 48 47 44 42 41 40 39 39 38 38 37 37 37 37 36 35 35 33 32 31 30 29 29 30 29 29 29 29 27 26 25 25 24 23 23 24 24 24 25 25 25 26
19 19 21 22 24 25 24 26 26 24 27 28 35 43 38 36 41 41 38 39 41 46 50 54 60 67 70 66 66 67 64 65 69 71 71 72 72 75 75 73 71 71 68 65 64 61 59 57 52 48 48 49 50 50 49 49 47 45 43 41 39 38 37 36 35 35 35 36 35 35 34 34 33 32 30 29 28 27 27 27 27 27 26 26 26 26 26 25 25 24 24 25 25 26 26 26 26
19 19 21 23 25 26 26 26 26 26 28 31 38 45 43 37 36 39 40 38 39 47 54 58 65 72 73 70 68 66 63 65 70 73 71 68 68 71 72 71 70 68 64 61 62 61 59 57 54 50 49 50 50 50 50 50 48 46 43 41 39 37 35 33 33 33 34 34 34 34 34 34 33 32 31 30 29 29 29 29 29 28 28 27 28 28 29 28 27 27 27 27 27 28 28 28 28
19 19 20 22 23 24 25 23 24 29 34 38 44 47 44 41 40 42 42 40 41 49 56 59 67 75 77 74 71 69 67 66 71 75 73 70 68 68 68 68 66 64 61 60 61 61 59 56 54 52 52 53 52 51 50 50 49 47 44 40 38 36 34 32 32 33 33 34 35 35 35 35 35 34 34 33 32 32 32 32 32 32 31 30 30 30 30 30 30 29 29 29 29 29 29 29 28
20 19 19 22 23 23 26 24 26 33 36 40 49 51 48 47 46 43 41 42 44 49 55 59 66 72 74 72 71 69 68 68 70 72 71 69 68 67 66 66 65 63 62 62 61 61 60 58 55 54 55 56 54 53 52 52 51 48 45 41 38 36 33 32 32 33 34 35 36 37 37 37 37 38 37 37 36 35 35 35 35 34 33 32 31 30 30 30 30 29 29 29 29 29 29 29 29
22 21 20 22 22 25 28 29 31 31 28 36 49 55 55 53 50 49 46 45 47 50 55 59 65 69 68 67 67 65 64 66 69 69 67 65 65 67 67 67 66 65 65 65 64 63 62 62 61 58 56 55 53 52 51 51 51 50 47 43 40 37 34 33 33 34 35 37 38 39 39 39 40 40 40 40 39 39 38 37 36 35 34 33 31 30 29 28 28 28 27 27 27 27 27 27 28
21 21 21 20 21 24 26 27 33 29 25 38 53 57 58 54 53 55 52 50 50 50 53 57 62 65 63 62 61 61 61 63 67 67 65 64 65 67 68 66 65 64 64 66 66 66 66 65 64 62 59 55 51 50 49 49 50 49 48 45 41 37 35 34 35 36 37 39 39 40 40 40 42 42 42 42 41 40 38 37 36 35 33 32 30 29 28 27 26 26 25 25 25 25 25 26 26
22 21 20 20 20 23 24 26 31 29 29 43 55 57 55 50 52 56 52 50 50 48 50 53 56 58 59 60 60 60 62 65 68 67 65 66 66 66 66 65 63 62 62 64 65 66 65 64 62 61 60 57 52 50 49 50 51 51 49 46 42 39 37 37 38 38 39 40 40 40 41 41 42 43 43 42 41 39 38 37 35 34 32 30 29 27 26 26 25 24 24 24 24 23 23 23 23
24 22 20 20 21 22 24 25 26 28 32 41 53 61 55 44 47 50 45 45 46 46 47 48 51 56 58 60 60 60 62 64 66 66 66 67 67 66 65 63 62 61 60 60 61 63 63 61 59 57 56 55 53 52 52 53 54 53 50 47 44 41 41 40 40 40 40 40 40 41 41 42 42 43 42 41 40 38 37 35 34 32 31 29 27 26 24 23 23 22 21 21 20 20 20 20 19
26 25 24 23 23 22 23 25 24 27 33 38 45 53 48 38 39 41 39 41 43 44 46 46 50 55 58 61 62 61 63 64 64 65 66 67 66 66 64 62 62 62 59 58 59 61 61 58 56 54 52 50 51 53 56 57 56 53 50 47 45 44 43 42 41 40 41 41 41 41 41 42 42 42 41 39 37 36 35 35 33 31 28 25 24 22 20 19 18 18 17 16 16 16 16 17 17
23 25 25 23 24 23 22 25 28 28 32 36 37 37 37 38 39 37 37 39 42 44 46 47 49 53 57 61 62 63 66 66 66 67 69 68 67 66 65 63 63 62 61 61 61 60 57 55 54 53 52 51 52 55 57 57 55 52 49 48 47 46 44 42 41 41 41 41 41 41 42 42 42 41 39 37 37 36 35 33 30 26 22 20 19 18 17 16 16 15 15 14 14 14 14 15 15